Simultaneous Nadir Overpasses (SNOs) Predictions

Prediction of SNOs between GOES-16 and LANDSAT-8 Satellite Orbit:

Table of predicted SNOs for the next 14.0 days since TLE Epoch: 10/5/2024
Index Date Time (GOES-16) GOES-16 Lat,Lon LANDSAT-8 Lat,Lon Distance(km) Time Diff (sec)
1 10/05/2024 03:29:20 0.08, -75.20 0.00, -79.27 453.01 0
2 10/06/2024 14:56:52 -0.07, -75.21 -1.00, -70.96 483.67 80
3 10/07/2024 03:15:36 0.07, -75.20 -0.11, -76.15 107.58 80
4 10/09/2024 03:06:02 0.07, -75.21 0.47, -73.18 230.46 80
5 10/09/2024 15:24:37 -0.07, -75.22 0.61, -78.33 354.08 80
6 10/11/2024 15:12:22 -0.06, -75.23 -0.01, -75.36 15.06 80
7 10/13/2024 15:00:06 -0.05, -75.24 -0.66, -72.38 325.44 80
8 10/14/2024 03:24:09 0.05, -75.24 -0.43, -77.57 264.81 80
9 10/16/2024 03:09:11 0.05, -75.26 0.21, -74.58 77.15 80
10 10/18/2024 02:56:52 0.05, -75.29 0.86, -71.60 420.11 80
11 10/18/2024 15:20:45 -0.05, -75.31 0.25, -76.74 163.12 80
